Location: Newark
(44.5208°N, 2.4294°E)
Time: 15:47:13
(UTC+00:00)

N. Korean satellite - Visible Passes

Search period start: 18 October 2019 00:00
Search period end: 28 October 2019 00:00
Orbit: 455 x 508 km, 97.2° (Epoch: 18 October)

Date Brightness Start Highest point End Pass type
(mag) Time Alt. Az. Time Alt. Az. Time Alt. Az.
18 Oct 9.9 17:51:32 10° SW 17:53:51 17° W 17:56:11 10° NW visible
19 Oct 8.9 05:14:54 10° NNE 05:18:07 30° E 05:21:23 10° SSE visible
19 Oct 8.5 17:25:16 10° SSW 17:28:23 34° W 17:31:35 10° NNW visible
20 Oct 10.0 04:50:24 10° NE 04:52:41 16° E 04:54:57 10° SE visible
21 Oct 10.5 18:10:47 10° W 18:11:29 10° W 18:12:10 10° WNW visible
22 Oct 7.7 05:32:06 10° NNE 05:35:40 50° E 05:39:15 10° S visible
22 Oct 9.6 17:43:17 10° SW 17:45:57 21° W 17:48:39 10° NW visible
23 Oct 9.2 05:07:12 10° NE 05:10:16 25° E 05:13:21 10° SSE visible
23 Oct 8.0 17:17:14 10° S 17:20:31 43° W 17:23:51 10° NNW visible
24 Oct 10.2 04:43:01 10° ENE 04:44:47 13° E 04:46:35 10° ESE visible
25 Oct 10.1 18:01:49 10° WSW 18:03:32 13° W 18:05:15 10° WNW visible
26 Oct 8.2 05:24:19 10° NNE 05:27:49 41° E 05:31:19 10° S visible
26 Oct 9.1 17:35:06 10° SSW 17:38:01 26° W 17:41:01 10° NW visible
27 Oct 9.6 04:59:32 10° NE 05:02:22 21° E 05:05:13 10° SE visible
